Year,Month,Day,Hour,Minute,Value (Times are PST for temperature in C)
2015,06,22,07,20,14.20
2015,06,22,07,21,14.20
2015,06,22,07,22,14.30
2015,06,22,07,23,14.30
2015,06,22,07,24,14.30
2015,06,22,07,25,14.40
2015,06,22,07,26,14.40
2015,06,22,07,27,14.50
2015,06,22,07,28,14.50
2015,06,22,07,29,14.60
2015,06,22,07,30,14.60
2015,06,22,07,31,14.60
2015,06,22,07,32,14.60
2015,06,22,07,33,14.70
2015,06,22,07,34,14.70
2015,06,22,07,35,14.70
2015,06,22,07,36,14.70
2015,06,22,07,37,14.70
2015,06,22,07,38,14.70
2015,06,22,07,39,14.80
2015,06,22,07,40,14.80
2015,06,22,07,41,14.80
2015,06,22,07,42,14.80
2015,06,22,07,43,14.80
2015,06,22,07,44,14.80
2015,06,22,07,45,14.90
2015,06,22,07,46,14.90
2015,06,22,07,47,14.90
2015,06,22,07,48,14.90
2015,06,22,07,49,14.90
2015,06,22,07,50,14.90
2015,06,22,07,51,14.90
2015,06,22,07,52,14.90
2015,06,22,07,53,14.90
2015,06,22,07,54,15.00
2015,06,22,07,55,15.00
2015,06,22,07,56,15.00
2015,06,22,07,57,15.10
2015,06,22,07,58,15.10
2015,06,22,07,59,15.10
2015,06,22,08,00,15.10
2015,06,22,08,01,15.10
2015,06,22,08,02,15.20
2015,06,22,08,03,15.20
2015,06,22,08,04,15.20
2015,06,22,08,05,15.20
2015,06,22,08,06,15.20
2015,06,22,08,07,15.30
2015,06,22,08,08,15.30
2015,06,22,08,09,15.30
2015,06,22,08,10,15.30
2015,06,22,08,11,15.30
2015,06,22,08,12,15.30
2015,06,22,08,13,15.30
2015,06,22,08,14,15.30
2015,06,22,08,15,15.40
2015,06,22,08,16,15.40
2015,06,22,08,17,15.50
2015,06,22,08,18,15.50
2015,06,22,08,19,15.50
2015,06,22,08,20,15.50
2015,06,22,08,21,15.50
2015,06,22,08,22,15.60
2015,06,22,08,23,15.60
2015,06,22,08,24,15.60
2015,06,22,08,25,15.70
2015,06,22,08,26,15.70
2015,06,22,08,27,15.70
2015,06,22,08,28,15.70
2015,06,22,08,29,15.70
2015,06,22,08,30,15.80
2015,06,22,08,31,15.90
2015,06,22,08,32,15.90
2015,06,22,08,33,16.10
2015,06,22,08,34,16.10
2015,06,22,08,35,16.10
2015,06,22,08,36,16.10
2015,06,22,08,37,16.10
2015,06,22,08,38,16.10
2015,06,22,08,39,16.10
2015,06,22,08,40,16.10
2015,06,22,08,41,16.20
2015,06,22,08,42,16.20
2015,06,22,08,43,16.30
2015,06,22,08,44,16.30
2015,06,22,08,45,16.40
2015,06,22,08,46,16.40
2015,06,22,08,47,16.40
2015,06,22,08,48,16.40
2015,06,22,08,49,16.40
2015,06,22,08,50,16.40
2015,06,22,08,51,16.50
2015,06,22,08,52,16.60
2015,06,22,08,53,16.60
2015,06,22,08,54,16.60
2015,06,22,08,55,16.60
2015,06,22,08,56,16.70
2015,06,22,08,57,16.70
2015,06,22,08,58,16.70
2015,06,22,08,59,16.70
2015,06,22,09,00,16.70
2015,06,22,09,01,16.70
2015,06,22,09,02,16.70
2015,06,22,09,03,16.80
2015,06,22,09,04,16.90
2015,06,22,09,05,16.90
2015,06,22,09,06,16.90
2015,06,22,09,07,17.00
2015,06,22,09,08,17.00
2015,06,22,09,09,17.10
2015,06,22,09,10,17.00
2015,06,22,09,11,17.00
2015,06,22,09,12,17.00
2015,06,22,09,13,17.00
2015,06,22,09,14,17.10
2015,06,22,09,15,17.10
2015,06,22,09,16,17.10
2015,06,22,09,17,17.10
2015,06,22,09,18,17.10
2015,06,22,09,19,17.10
2015,06,22,09,20,17.00
2015,06,22,09,21,17.00
2015,06,22,09,22,17.10
2015,06,22,09,23,17.10
2015,06,22,09,24,17.10
2015,06,22,09,25,17.10
2015,06,22,09,26,17.10
2015,06,22,09,27,17.10
2015,06,22,09,28,17.20
2015,06,22,09,29,17.20
2015,06,22,09,30,17.30
2015,06,22,09,31,17.30
2015,06,22,09,32,17.30
2015,06,22,09,33,17.40
2015,06,22,09,34,17.40
2015,06,22,09,35,17.30
2015,06,22,09,36,17.40
2015,06,22,09,37,17.40
2015,06,22,09,38,17.40
2015,06,22,09,39,17.50
2015,06,22,09,40,17.50
2015,06,22,09,41,17.60
2015,06,22,09,42,17.70
2015,06,22,09,43,17.80
2015,06,22,09,44,17.80
2015,06,22,09,45,17.70
2015,06,22,09,46,17.70
2015,06,22,09,47,17.70
2015,06,22,09,48,17.80
2015,06,22,09,49,17.80
2015,06,22,09,50,17.90
2015,06,22,09,51,18.00
2015,06,22,09,52,18.10
2015,06,22,09,53,18.20
2015,06,22,09,54,18.20
2015,06,22,09,55,18.20
2015,06,22,09,56,18.20
2015,06,22,09,57,18.20
2015,06,22,09,58,18.20
2015,06,22,09,59,18.20
2015,06,22,10,00,18.20
2015,06,22,10,01,18.20
2015,06,22,10,02,18.20
2015,06,22,10,03,18.20
2015,06,22,10,04,18.30
2015,06,22,10,05,18.30
2015,06,22,10,06,18.40
2015,06,22,10,07,18.50
2015,06,22,10,08,18.60
2015,06,22,10,09,18.60
2015,06,22,10,10,18.70
2015,06,22,10,11,18.70
2015,06,22,10,12,18.80
2015,06,22,10,13,18.80
2015,06,22,10,14,18.80
2015,06,22,10,15,18.80
2015,06,22,10,16,18.70
2015,06,22,10,17,18.70
2015,06,22,10,18,18.70
2015,06,22,10,19,18.70
2015,06,22,10,20,18.70
2015,06,22,10,21,18.60
2015,06,22,10,22,18.60
2015,06,22,10,23,18.50
2015,06,22,10,24,18.50
2015,06,22,10,25,18.40
2015,06,22,10,26,18.30
2015,06,22,10,27,18.20
2015,06,22,10,28,18.20
2015,06,22,10,29,18.20
2015,06,22,10,30,18.10
2015,06,22,10,31,18.00
2015,06,22,10,32,17.90
2015,06,22,10,33,17.90
2015,06,22,10,34,17.90
2015,06,22,10,35,17.90
2015,06,22,10,36,18.00
2015,06,22,10,37,18.10
2015,06,22,10,38,18.10
2015,06,22,10,39,18.20
2015,06,22,10,40,18.20
2015,06,22,10,41,18.30
2015,06,22,10,42,18.30
2015,06,22,10,43,18.30
2015,06,22,10,44,18.30
2015,06,22,10,45,18.40
2015,06,22,10,46,18.50
2015,06,22,10,47,18.50
2015,06,22,10,48,18.60
2015,06,22,10,49,18.70
2015,06,22,10,50,18.70
2015,06,22,10,51,18.60
2015,06,22,10,52,18.60
2015,06,22,10,53,18.60
2015,06,22,10,54,18.70
2015,06,22,10,55,18.80
2015,06,22,10,56,19.00
2015,06,22,10,57,19.10
2015,06,22,10,58,19.10
2015,06,22,10,59,19.20
2015,06,22,11,00,19.20
2015,06,22,11,01,19.20
2015,06,22,11,02,19.20
2015,06,22,11,03,19.30
2015,06,22,11,04,19.30
2015,06,22,11,05,19.30
2015,06,22,11,06,19.30
2015,06,22,11,07,19.30
2015,06,22,11,08,19.30
2015,06,22,11,09,19.40
2015,06,22,11,10,19.40
2015,06,22,11,11,19.40
2015,06,22,11,12,19.30
2015,06,22,11,13,19.40
2015,06,22,11,14,19.30
2015,06,22,11,15,19.20
2015,06,22,11,16,19.10
2015,06,22,11,17,19.10
2015,06,22,11,18,19.10
2015,06,22,11,19,19.10
2015,06,22,11,20,19.00
2015,06,22,11,21,19.10
2015,06,22,11,22,19.10
2015,06,22,11,23,19.10
2015,06,22,11,24,19.10
2015,06,22,11,25,19.20
2015,06,22,11,26,19.40
2015,06,22,11,27,19.50
2015,06,22,11,28,19.60
2015,06,22,11,29,19.70
2015,06,22,11,30,19.70
2015,06,22,11,31,19.70
2015,06,22,11,32,19.60
2015,06,22,11,33,19.50
2015,06,22,11,34,19.50
2015,06,22,11,35,19.50
2015,06,22,11,36,19.40
2015,06,22,11,37,19.40
2015,06,22,11,38,19.40
2015,06,22,11,39,19.50
2015,06,22,11,40,19.50
2015,06,22,11,41,19.60
2015,06,22,11,42,19.60
2015,06,22,11,43,19.70
2015,06,22,11,44,19.70
2015,06,22,11,45,19.80
2015,06,22,11,46,19.80
2015,06,22,11,47,19.90
2015,06,22,11,48,19.90
2015,06,22,11,49,19.90
2015,06,22,11,50,19.90
2015,06,22,11,51,20.00
2015,06,22,11,52,20.10
2015,06,22,11,53,20.20
2015,06,22,11,54,20.10
2015,06,22,11,55,19.90
2015,06,22,11,56,19.90
2015,06,22,11,57,19.80
2015,06,22,11,58,19.70
2015,06,22,11,59,19.70
2015,06,22,12,00,19.70
2015,06,22,12,01,19.70
2015,06,22,12,02,19.80
2015,06,22,12,03,19.80
2015,06,22,12,04,19.80
2015,06,22,12,05,19.70
2015,06,22,12,06,19.70
2015,06,22,12,07,19.60
2015,06,22,12,08,19.40
2015,06,22,12,09,19.40
2015,06,22,12,10,19.30
2015,06,22,12,11,19.30
2015,06,22,12,12,19.30
2015,06,22,12,13,19.30
2015,06,22,12,14,19.30
2015,06,22,12,15,19.40
2015,06,22,12,16,19.50
2015,06,22,12,17,19.60
2015,06,22,12,18,19.60
2015,06,22,12,19,19.70
2015,06,22,12,20,19.70
2015,06,22,12,21,19.80
2015,06,22,12,22,19.80
2015,06,22,12,23,19.90
2015,06,22,12,24,19.90
2015,06,22,12,25,19.90
2015,06,22,12,26,19.90
2015,06,22,12,27,19.90
2015,06,22,12,28,19.90
2015,06,22,12,29,19.90
2015,06,22,12,30,19.90
2015,06,22,12,31,19.90
2015,06,22,12,32,19.90
2015,06,22,12,33,19.90
2015,06,22,12,34,19.90
2015,06,22,12,35,19.90
2015,06,22,12,36,19.90
2015,06,22,12,37,19.90
2015,06,22,12,38,19.90
2015,06,22,12,39,19.90
2015,06,22,12,40,19.90
2015,06,22,12,41,19.90
2015,06,22,12,42,19.90
2015,06,22,12,43,19.90
2015,06,22,12,44,19.80
2015,06,22,12,45,19.80
2015,06,22,12,46,19.80
2015,06,22,12,47,19.70
2015,06,22,12,48,19.70
2015,06,22,12,49,19.70
2015,06,22,12,50,19.70
2015,06,22,12,51,19.70
2015,06,22,12,52,19.70
2015,06,22,12,53,19.70
2015,06,22,12,54,19.70
2015,06,22,12,55,19.70
2015,06,22,12,56,19.70
2015,06,22,12,57,19.70
2015,06,22,12,58,19.70
2015,06,22,12,59,19.80
2015,06,22,13,00,19.80
2015,06,22,13,01,19.80
2015,06,22,13,02,19.80
2015,06,22,13,03,19.90
2015,06,22,13,04,19.90
2015,06,22,13,05,19.90
2015,06,22,13,06,19.90
2015,06,22,13,07,19.90
2015,06,22,13,08,19.90
2015,06,22,13,09,19.90
2015,06,22,13,10,19.90
2015,06,22,13,11,20.00
2015,06,22,13,12,20.10
2015,06,22,13,13,20.10
2015,06,22,13,14,20.00
2015,06,22,13,15,20.00
2015,06,22,13,16,20.10
2015,06,22,13,17,20.10
2015,06,22,13,18,20.20
2015,06,22,13,19,20.10
2015,06,22,13,20,20.10
2015,06,22,13,21,20.10
2015,06,22,13,22,20.10
2015,06,22,13,23,20.10
2015,06,22,13,24,20.10
2015,06,22,13,25,20.10
2015,06,22,13,26,20.10
2015,06,22,13,27,20.10
2015,06,22,13,28,20.20
2015,06,22,13,29,20.20
2015,06,22,13,30,20.20
2015,06,22,13,31,20.20
2015,06,22,13,32,20.20
2015,06,22,13,33,20.20
2015,06,22,13,34,20.20
2015,06,22,13,35,20.20
2015,06,22,13,36,20.20
2015,06,22,13,37,20.20
2015,06,22,13,38,20.20
2015,06,22,13,39,20.20
2015,06,22,13,40,20.20
2015,06,22,13,41,20.20
2015,06,22,13,42,20.20
2015,06,22,13,43,20.40
2015,06,22,13,44,20.50
2015,06,22,13,45,20.60
2015,06,22,13,46,20.70
2015,06,22,13,47,20.80
2015,06,22,13,48,20.80
2015,06,22,13,49,20.80
2015,06,22,13,50,20.70
2015,06,22,13,51,20.70
2015,06,22,13,52,20.70
2015,06,22,13,53,20.70
2015,06,22,13,54,20.60
2015,06,22,13,55,20.60
2015,06,22,13,56,20.50
2015,06,22,13,57,20.40
2015,06,22,13,58,20.50
2015,06,22,13,59,20.50
2015,06,22,14,00,20.60
2015,06,22,14,01,20.70
2015,06,22,14,02,20.80
2015,06,22,14,03,20.80
2015,06,22,14,04,20.90
2015,06,22,14,05,20.90
2015,06,22,14,06,20.90
2015,06,22,14,07,20.90
2015,06,22,14,08,20.90
2015,06,22,14,09,21.00
2015,06,22,14,10,21.00
2015,06,22,14,11,21.00
2015,06,22,14,12,20.90
2015,06,22,14,13,20.90
2015,06,22,14,14,21.00
2015,06,22,14,15,20.90
2015,06,22,14,16,20.80
2015,06,22,14,17,20.70
2015,06,22,14,18,20.60
2015,06,22,14,19,20.50
2015,06,22,14,20,20.50
2015,06,22,14,21,20.40
2015,06,22,14,22,20.30
2015,06,22,14,23,20.30
2015,06,22,14,24,20.20
2015,06,22,14,25,20.20
2015,06,22,14,26,20.10
2015,06,22,14,27,20.10
2015,06,22,14,28,20.10
2015,06,22,14,29,20.10
2015,06,22,14,30,20.10
2015,06,22,14,31,20.10
2015,06,22,14,32,20.00
2015,06,22,14,33,19.90
2015,06,22,14,34,19.90
2015,06,22,14,35,19.90
2015,06,22,14,36,20.00
2015,06,22,14,37,20.00
2015,06,22,14,38,19.90
2015,06,22,14,39,19.90
2015,06,22,14,40,19.70
2015,06,22,14,41,19.60
2015,06,22,14,42,19.50
2015,06,22,14,43,19.40
2015,06,22,14,44,19.40
2015,06,22,14,45,19.30
2015,06,22,14,46,19.40
2015,06,22,14,47,19.40
2015,06,22,14,48,19.50
2015,06,22,14,49,19.60
2015,06,22,14,50,19.70
2015,06,22,14,51,19.70
2015,06,22,14,52,19.80
2015,06,22,14,53,19.90
2015,06,22,14,54,19.90
2015,06,22,14,55,19.90
2015,06,22,14,56,20.00
2015,06,22,14,57,20.10
2015,06,22,14,58,20.20
2015,06,22,14,59,20.20
2015,06,22,15,00,20.20
2015,06,22,15,01,20.20
2015,06,22,15,02,20.20
2015,06,22,15,03,20.20
2015,06,22,15,04,20.20
2015,06,22,15,05,20.20
2015,06,22,15,06,20.30
2015,06,22,15,07,20.30
2015,06,22,15,08,20.20
2015,06,22,15,09,20.20
2015,06,22,15,10,20.20
2015,06,22,15,11,20.20
2015,06,22,15,12,20.20
2015,06,22,15,13,20.20
2015,06,22,15,14,20.20
2015,06,22,15,15,20.40
2015,06,22,15,16,20.40
2015,06,22,15,17,20.50
2015,06,22,15,18,20.50
2015,06,22,15,19,20.60
2015,06,22,15,20,20.70
2015,06,22,15,21,20.70
2015,06,22,15,22,20.80
2015,06,22,15,23,20.90
2015,06,22,15,24,20.90
2015,06,22,15,25,20.80
2015,06,22,15,26,20.80
2015,06,22,15,27,20.70
2015,06,22,15,28,20.60
2015,06,22,15,29,20.50
2015,06,22,15,30,20.50
2015,06,22,15,31,20.60
2015,06,22,15,32,20.70
2015,06,22,15,33,20.70
2015,06,22,15,34,20.80
2015,06,22,15,35,20.90
2015,06,22,15,36,21.00
2015,06,22,15,37,21.00
2015,06,22,15,38,21.10
2015,06,22,15,39,21.20
2015,06,22,15,40,21.30
2015,06,22,15,41,21.30
2015,06,22,15,42,21.30
2015,06,22,15,43,21.30
2015,06,22,15,44,21.30
2015,06,22,15,45,21.30
2015,06,22,15,46,21.30
2015,06,22,15,47,21.30
2015,06,22,15,48,21.30
2015,06,22,15,49,21.30
2015,06,22,15,50,21.30
2015,06,22,15,51,21.30
2015,06,22,15,52,21.40
2015,06,22,15,53,21.50
2015,06,22,15,54,21.60
2015,06,22,15,55,21.70
2015,06,22,15,56,21.80
2015,06,22,15,57,21.80
2015,06,22,15,58,21.90
2015,06,22,15,59,21.90
2015,06,22,16,00,22.00
2015,06,22,16,01,22.00
2015,06,22,16,02,22.10
2015,06,22,16,03,22.20
2015,06,22,16,04,22.20
2015,06,22,16,05,22.20
2015,06,22,16,06,22.20
2015,06,22,16,07,22.20
2015,06,22,16,08,22.20
2015,06,22,16,09,22.10
2015,06,22,16,10,22.10
2015,06,22,16,11,22.10
2015,06,22,16,12,22.20
2015,06,22,16,13,22.20
2015,06,22,16,14,22.30
2015,06,22,16,15,22.30
2015,06,22,16,16,22.50
2015,06,22,16,17,22.60
2015,06,22,16,18,22.70
2015,06,22,16,19,22.80
2015,06,22,16,20,22.70
2015,06,22,16,21,22.70
2015,06,22,16,22,22.70
2015,06,22,16,23,22.60
2015,06,22,16,24,22.50
2015,06,22,16,25,22.50
2015,06,22,16,26,22.50
2015,06,22,16,27,22.50
2015,06,22,16,28,22.50
2015,06,22,16,29,22.40
2015,06,22,16,30,22.40
2015,06,22,16,31,22.50
2015,06,22,16,32,22.40
2015,06,22,16,33,22.40
2015,06,22,16,34,22.40
2015,06,22,16,35,22.40
2015,06,22,16,36,22.40
2015,06,22,16,37,22.50
2015,06,22,16,38,22.50
2015,06,22,16,39,22.60
2015,06,22,16,40,22.60
2015,06,22,16,41,22.70
2015,06,22,16,42,22.70
2015,06,22,16,43,22.70
2015,06,22,16,44,22.70
2015,06,22,16,45,22.70
2015,06,22,16,46,22.70
2015,06,22,16,47,22.60
2015,06,22,16,48,22.60
2015,06,22,16,49,22.50
2015,06,22,16,50,22.40
2015,06,22,16,51,22.30
2015,06,22,16,52,22.30
2015,06,22,16,53,22.20
2015,06,22,16,54,22.10
2015,06,22,16,55,22.00
2015,06,22,16,56,22.00
2015,06,22,16,57,21.90
2015,06,22,16,58,21.90
2015,06,22,16,59,21.80
2015,06,22,17,00,21.70
2015,06,22,17,01,21.70
2015,06,22,17,02,21.60
2015,06,22,17,03,21.60
2015,06,22,17,04,21.60
2015,06,22,17,05,21.60
2015,06,22,17,06,21.60
2015,06,22,17,07,21.60
2015,06,22,17,08,21.60
2015,06,22,17,09,21.60
2015,06,22,17,10,21.60
2015,06,22,17,11,21.60
2015,06,22,17,12,21.60
2015,06,22,17,13,21.40
2015,06,22,17,14,21.40
2015,06,22,17,15,21.40
2015,06,22,17,16,21.30
2015,06,22,17,17,21.30
2015,06,22,17,18,21.40
2015,06,22,17,19,21.40
2015,06,22,17,20,21.40
2015,06,22,17,21,21.50
2015,06,22,17,22,21.60
2015,06,22,17,23,21.60
2015,06,22,17,24,21.60
2015,06,22,17,25,21.70
2015,06,22,17,26,21.70
2015,06,22,17,27,21.80
2015,06,22,17,28,21.90
2015,06,22,17,29,21.90
2015,06,22,17,30,22.00
2015,06,22,17,31,22.00
2015,06,22,17,32,22.00
2015,06,22,17,33,22.00
2015,06,22,17,34,22.00
2015,06,22,17,35,22.00
2015,06,22,17,36,22.00
2015,06,22,17,37,22.10
2015,06,22,17,38,22.00
2015,06,22,17,39,22.10
2015,06,22,17,40,22.10
2015,06,22,17,41,22.00
2015,06,22,17,42,22.00
2015,06,22,17,43,22.00
2015,06,22,17,44,22.00
2015,06,22,17,45,22.00
2015,06,22,17,46,21.90
2015,06,22,17,47,21.90
2015,06,22,17,48,21.90
2015,06,22,17,49,21.90
2015,06,22,17,50,21.90
2015,06,22,17,51,21.90
2015,06,22,17,52,22.00
2015,06,22,17,53,22.00
2015,06,22,17,54,22.00
2015,06,22,17,55,22.10
2015,06,22,17,56,22.10
2015,06,22,17,57,22.10
2015,06,22,17,58,22.00
2015,06,22,17,59,22.00
2015,06,22,18,00,22.00
2015,06,22,18,01,22.00
2015,06,22,18,02,22.00
2015,06,22,18,03,21.90
2015,06,22,18,04,21.90
2015,06,22,18,05,21.80
2015,06,22,18,06,21.80
2015,06,22,18,07,21.70
2015,06,22,18,08,21.70
2015,06,22,18,09,21.70
2015,06,22,18,10,21.70
2015,06,22,18,11,21.70
2015,06,22,18,12,21.80
2015,06,22,18,13,21.80
2015,06,22,18,14,21.80
2015,06,22,18,15,21.80
2015,06,22,18,16,21.90
2015,06,22,18,17,21.90
2015,06,22,18,18,21.90
2015,06,22,18,19,21.90
2015,06,22,18,20,21.90
2015,06,22,18,21,21.90
2015,06,22,18,22,21.90
2015,06,22,18,23,21.90
2015,06,22,18,24,21.90
2015,06,22,18,25,21.90
2015,06,22,18,26,21.80
2015,06,22,18,27,21.80
2015,06,22,18,28,21.70
2015,06,22,18,29,21.40
2015,06,22,18,30,21.20
2015,06,22,18,31,20.90
2015,06,22,18,32,20.70
2015,06,22,18,33,20.60
2015,06,22,18,34,20.50
2015,06,22,18,35,20.40
2015,06,22,18,36,20.30
2015,06,22,18,37,20.20
2015,06,22,18,38,20.20
2015,06,22,18,39,20.20
2015,06,22,18,40,20.20
2015,06,22,18,41,20.20
2015,06,22,18,42,20.20
2015,06,22,18,43,20.20
2015,06,22,18,44,20.20
2015,06,22,18,45,20.30
2015,06,22,18,46,20.40
2015,06,22,18,47,20.40
2015,06,22,18,48,20.40
2015,06,22,18,49,20.50
2015,06,22,18,50,20.50
2015,06,22,18,51,20.50
2015,06,22,18,52,20.50
2015,06,22,18,53,20.60
2015,06,22,18,54,20.60
2015,06,22,18,55,20.70
2015,06,22,18,56,20.70
2015,06,22,18,57,20.70
2015,06,22,18,58,20.70
2015,06,22,18,59,20.70
2015,06,22,19,00,20.60
2015,06,22,19,01,20.60
2015,06,22,19,02,20.50
2015,06,22,19,03,20.50
2015,06,22,19,04,20.40
2015,06,22,19,05,20.40
2015,06,22,19,06,20.40
2015,06,22,19,07,20.40
2015,06,22,19,08,20.40
2015,06,22,19,09,20.40
2015,06,22,19,10,20.40
2015,06,22,19,11,20.50
2015,06,22,19,12,20.50
2015,06,22,19,13,20.50
2015,06,22,19,14,20.50
2015,06,22,19,15,20.50
2015,06,22,19,16,20.50
2015,06,22,19,17,20.50
2015,06,22,19,18,20.50
2015,06,22,19,19,20.60
2015,06,22,19,20,20.60
2015,06,22,19,21,20.60
2015,06,22,19,22,20.70
2015,06,22,19,23,20.70
2015,06,22,19,24,20.70
2015,06,22,19,25,20.70
2015,06,22,19,26,20.70
2015,06,22,19,27,20.80
2015,06,22,19,28,20.80
2015,06,22,19,29,20.80
2015,06,22,19,30,20.80
2015,06,22,19,31,20.80
2015,06,22,19,32,20.80
2015,06,22,19,33,20.80
2015,06,22,19,34,20.80
2015,06,22,19,35,20.70
2015,06,22,19,36,20.70
2015,06,22,19,37,20.70
2015,06,22,19,38,20.70
2015,06,22,19,39,20.70
2015,06,22,19,40,20.60
2015,06,22,19,41,20.60
2015,06,22,19,42,20.60
2015,06,22,19,43,20.50
2015,06,22,19,44,20.50
2015,06,22,19,45,20.50
2015,06,22,19,46,20.50
2015,06,22,19,47,20.50
2015,06,22,19,48,20.50
2015,06,22,19,49,20.50
2015,06,22,19,50,20.50
2015,06,22,19,51,20.50
2015,06,22,19,52,20.50
2015,06,22,19,53,20.50
2015,06,22,19,54,20.50
2015,06,22,19,55,20.50
2015,06,22,19,56,20.40
2015,06,22,19,57,20.30
2015,06,22,19,58,20.20
2015,06,22,19,59,20.20
2015,06,22,20,00,20.10
2015,06,22,20,01,19.90
2015,06,22,20,02,19.90
2015,06,22,20,03,19.90
2015,06,22,20,04,19.80
2015,06,22,20,05,19.70
2015,06,22,20,06,19.60
2015,06,22,20,07,19.60
2015,06,22,20,08,19.50
2015,06,22,20,09,19.40
2015,06,22,20,10,19.40
2015,06,22,20,11,19.40
2015,06,22,20,12,19.40
2015,06,22,20,13,19.30
2015,06,22,20,14,19.30
2015,06,22,20,15,19.30
2015,06,22,20,16,19.30
2015,06,22,20,17,19.30
2015,06,22,20,18,19.30
2015,06,22,20,19,19.30
2015,06,22,20,20,19.30
2015,06,22,20,21,19.30
2015,06,22,20,22,19.20
2015,06,22,20,23,19.20
2015,06,22,20,24,19.20
2015,06,22,20,25,19.20
2015,06,22,20,26,19.20
2015,06,22,20,27,19.10
2015,06,22,20,28,19.10
2015,06,22,20,29,19.10
2015,06,22,20,30,19.10
2015,06,22,20,31,19.10
2015,06,22,20,32,19.10
2015,06,22,20,33,19.00
2015,06,22,20,34,18.90
2015,06,22,20,35,18.90
2015,06,22,20,36,18.90
2015,06,22,20,37,18.90
2015,06,22,20,38,18.90
2015,06,22,20,39,18.80
2015,06,22,20,40,18.80
2015,06,22,20,41,18.70
2015,06,22,20,42,18.70
2015,06,22,20,43,18.60
2015,06,22,20,44,18.60
2015,06,22,20,45,18.50
2015,06,22,20,46,18.50
2015,06,22,20,47,18.50
2015,06,22,20,48,18.40
2015,06,22,20,49,18.40
2015,06,22,20,50,18.40
2015,06,22,20,51,18.40
2015,06,22,20,52,18.40
2015,06,22,20,53,18.40
2015,06,22,20,54,18.40
2015,06,22,20,55,18.40
2015,06,22,20,56,18.40
2015,06,22,20,57,18.40
2015,06,22,20,58,18.40
